This is the latest recevied weather packets stored in our database for station/object KE8WAY. If no packets are shown the sender has not sent any weather packets the latest 10 day(s).
| Time | Temp. | Humidity | Pressure | Rain* | Wind** | Luminosity | Snow |
|---|---|---|---|---|---|---|---|
| 1777905708 | 17.78° C | 54% | 1005 hPa | 0 mm | - | 701 W/m² | - |
| 1777905405 | 17.78° C | 56% | 1005.2 hPa | 0 mm | - | 701 W/m² | - |
| 1777905103 | 17.22° C | 56% | 1005.1 hPa | 0 mm | - | 682 W/m² | - |
| 1777904800 | 17.78° C | 56% | 1005 hPa | 0 mm | - | 665 W/m² | - |
| 1777904497 | 17.22° C | 56% | 1005 hPa | 0 mm | - | 643 W/m² | - |
| 1777904193 | 17.22° C | 56% | 1005.3 hPa | 0 mm | - | 639 W/m² | - |
| 1777903891 | 16.67° C | 57% | 1005.2 hPa | 0 mm | - | 618 W/m² | - |
| 1777903587 | 16.67° C | 58% | 1005.4 hPa | 0 mm | - | 564 W/m² | - |
| 1777903283 | 16.67° C | 58% | 1005.4 hPa | 0 mm | - | 574 W/m² | - |
| 1777902980 | 16.11° C | 58% | 1005.2 hPa | 0 mm | - | 543 W/m² | - |
| 1777902677 | 16.11° C | 60% | 1005.6 hPa | 0 mm | - | 532 W/m² | - |
| 1777902374 | 16.11° C | 59% | 1005.4 hPa | 0 mm | - | 503 W/m² | - |
| 1777902070 | 16.11° C | 60% | 1005.5 hPa | 0 mm | - | 461 W/m² | - |
| 1777901769 | 15.56° C | 60% | 1005.6 hPa | 0 mm | - | 409 W/m² | - |
| 1777901466 | 15.56° C | 60% | 1005.6 hPa | 0 mm | - | 396 W/m² | - |
| 1777901164 | 15° C | 59% | 1005.7 hPa | 0 mm | - | 376 W/m² | - |
| 1777900861 | 15° C | 60% | 1005.7 hPa | 0 mm | - | 338 W/m² | - |
| 1777900558 | 15° C | 60% | 1005.6 hPa | 0 mm | - | 311 W/m² | - |
| 1777900255 | 15° C | 60% | 1005.9 hPa | 0 mm | - | 294 W/m² | - |
| 1777899951 | 14.44° C | 61% | 1005.9 hPa | 0 mm | - | 277 W/m² | - |
| 1777899648 | 14.44° C | 60% | 1005.8 hPa | 0 mm | - | 273 W/m² | - |
| 1777899346 | 14.44° C | 62% | 1006 hPa | 0 mm | - | 259 W/m² | - |
| 1777899044 | 13.89° C | 62% | 1006 hPa | 0 mm | - | 243 W/m² | - |
| 1777898740 | 13.89° C | 62% | 1005.8 hPa | 0 mm | - | 239 W/m² | - |
| 1777898438 | 13.89° C | 63% | 1006 hPa | 0 mm | - | 196 W/m² | - |
* Rain latest hour (hover to see other rain measurements)
** Current wind speed in m/s (hover to see current wind gust speed)